Weather History for KICT - June, 2013

Change the Weather History Date:

Saturday, June 1, 2013

  Actual Average Record
Temperature  
Mean Temperature 66 °F 71 °F  
Max Temperature 73 °F 82 °F 99 °F (1985)
Min Temperature 59 °F 61 °F 44 °F (1983)
Degree Days  
Heating Degree Days 0 1  
Month to date heating degree days 0 1  
Since 1 June heating degree days 0 1  
Since 1 July heating degree days 4474 4589  
Cooling Degree Days 1 7  
Month to date cooling degree days 1 7  
Year to date cooling degree days 139 143  
Since 1 June cooling degree days 1 7  
Growing Degree Days 16 (Base 50)    
Moisture  
Dew Point 53 °F    
Average Humidity 69    
Maximum Humidity 87    
Minimum Humidity 51    
Precipitation  
Precipitation T in 0.18 in 2.42 in (1941)
Month to date precipitation T 0.18  
Year to date precipitation 14.02 12.04  
Snow  
Snow 0.00 in 0.00 in T in (2001)
Month to date snowfall 0.0 0.0  
Since 1 June snowfall 0.0 0.0  
Since 1 July snowfall 30.0 14.9  
Snow Depth 0.00 in    
Sea Level Pressure  
Sea Level Pressure 29.90 in    
Wind  
Wind Speed 14 mph (NNW)    
Max Wind Speed 25 mph    
Max Gust Speed 31 mph    
Visibility 10 miles    
Events Rain    
T = Trace of Precipitation, MM = Missing Value Source: NWS Daily Summary

Daily Weather History Graph

Daily Weather History Graph

Search for Another Location

Airport or City:

Trip Planner

Search our weather history database for the weather conditions in past years. The results will help you decide how hot, cold, wet, or windy it might be!

Date:

Astronomy

Jun. 01, 2013 Rise Set
Actual Time 6:09 AM CDT 8:45 PM CDT
Civil Twilight 5:39 AM CDT 9:16 PM CDT
Nautical Twilight 5:01 AM CDT 9:54 PM CDT
Astronomical Twilight 4:18 AM CDT 10:37 PM CDT
Moon 1:59 AM CDT (6/1) 2:23 PM CDT (6/1)
Length of Visible Light 15h 37m
Length of Day
14h 36m
Last Quarter, 40% of the Moon is Illuminated
Jun 1
Last Quarter
Jun 8
New
Jun 16
First Quarter
Jun 23
Full
Jun 29
Last Quarter

Hourly Weather History & Observations

Time (CDT) Temp. Dew Point Humidity Pressure Visibility Wind Dir Wind Speed Gust Speed Precip Events Conditions
12:53 AM 66.9 °F 63.0 °F 87% 29.72 in 10.0 mi ENE 4.6 mph - N/A   Mostly Cloudy
1:53 AM 68.0 °F 64.4 °F 88% 29.73 in 5.0 mi NNW 5.8 mph - N/A   Overcast
2:53 AM 71.1 °F 60.1 °F 68% 29.76 in 7.0 mi NNW 20.7 mph 31.1 mph 0.00 in Rain Light Rain
3:53 AM 66.0 °F 51.1 °F 59% 29.75 in 10.0 mi North 15.0 mph 24.2 mph 0.00 in   Mostly Cloudy
4:53 AM 63.0 °F 50.0 °F 63% 29.76 in 10.0 mi NNW 15.0 mph 23.0 mph N/A   Scattered Clouds
5:53 AM 61.0 °F 48.9 °F 64% 29.80 in 10.0 mi NW 13.8 mph - N/A   Scattered Clouds
6:53 AM 59.0 °F 48.9 °F 69% 29.84 in 10.0 mi NNW 16.1 mph - N/A   Scattered Clouds
7:53 AM 62.1 °F 48.9 °F 62% 29.86 in 10.0 mi NW 18.4 mph 24.2 mph N/A   Scattered Clouds
8:53 AM 64.0 °F 48.9 °F 58% 29.88 in 10.0 mi NW 16.1 mph 25.3 mph N/A   Scattered Clouds
9:53 AM 66.9 °F 48.9 °F 52% 29.90 in 10.0 mi NW 20.7 mph 25.3 mph N/A   Scattered Clouds
10:53 AM 69.1 °F 50.0 °F 51% 29.91 in 9.0 mi WNW 18.4 mph 23.0 mph N/A   Scattered Clouds
11:53 AM 70.0 °F 52.0 °F 53% 29.93 in 10.0 mi NW 18.4 mph 26.5 mph N/A   Mostly Cloudy
12:53 PM 69.1 °F 53.1 °F 57% 29.95 in 10.0 mi NW 15.0 mph 25.3 mph N/A   Mostly Cloudy
1:53 PM 69.1 °F 53.1 °F 57% 29.95 in 10.0 mi WNW 17.3 mph - N/A   Overcast
2:53 PM 69.1 °F 54.0 °F 58% 29.95 in 10.0 mi NNW 16.1 mph - N/A   Overcast
3:53 PM 73.0 °F 55.0 °F 53% 29.95 in 10.0 mi NW 11.5 mph - N/A   Mostly Cloudy
4:53 PM 73.0 °F 55.0 °F 53% 29.95 in 10.0 mi NW 16.1 mph - N/A   Scattered Clouds
5:53 PM 71.1 °F 55.0 °F 57% 29.96 in 10.0 mi NW 9.2 mph - N/A   Scattered Clouds
6:53 PM 72.0 °F 54.0 °F 53% 29.96 in 10.0 mi NW 11.5 mph - N/A   Scattered Clouds
7:53 PM 70.0 °F 53.1 °F 55% 29.98 in 10.0 mi North 11.5 mph - N/A   Scattered Clouds
8:53 PM 66.9 °F 52.0 °F 59% 29.99 in 10.0 mi North 9.2 mph - N/A   Scattered Clouds
9:53 PM 64.9 °F 52.0 °F 63% 30.03 in 10.0 mi NNW 10.4 mph - N/A   Partly Cloudy
10:53 PM 63.0 °F 52.0 °F 67% 30.05 in 10.0 mi NNW 12.7 mph - N/A   Clear
11:53 PM 61.0 °F 52.0 °F 72% 30.05 in 10.0 mi North 10.4 mph - N/A   Clear